Quick links : Home Page : Contact Us : Index : Site Map : Search Site : Ephemerides


(84028) 2002 PN44

Orbital Elements

The following orbital elements are taken from MPO 60077
 (84028) 2002 PN44
Epoch 2007 Oct. 27.0 TT = JDT 2454400.5                 MPC
M  63.10101              (2000.0)            P               Q
n   0.21249204     Peri.  231.34147     +0.88071907     +0.46327375
a   2.7812559      Node   100.85960     -0.39739915     +0.83598371
e   0.2381764      Incl.    5.75893     -0.25769717     +0.29412358
P   4.64           H   15.4           G   0.15           U   1
From 76 observations at 4 oppositions, 1994-2004, mean residual 0".62.
An explanation of the orbital elements is available.

These orbital elements are also available in forms suitable for loading into a number of popular planetarium-type software programs.


Ephemeris

The following ephemeris is at intervals of five days. A daily ephemeris covering the same time interval is also available.

Personalized ephemerides for this (and other) objects may be generated using the Minor Planet & Comet Ephemeris Service.

Date    TT    R. A. (2000) Decl.     Delta      r     Elong.  Phase     V
2008 08 22    08 29.03   +20 21.1    4.153    3.260    24.6     7.4    21.6
 
2008 12 30    10 08.93   +15 53.3    2.687    3.401   129.8    12.8    21.0
2009 01 04    10 07.47   +16 11.5    2.635    3.405   135.3    11.7    20.9
2009 01 09    10 05.48   +16 32.2    2.588    3.408   140.9    10.5    20.8
2009 01 14    10 03.00   +16 55.2    2.547    3.411   146.7     9.1    20.7
2009 01 19    10 00.04   +17 20.1    2.512    3.415   152.5     7.7    20.6
2009 01 24    09 56.67   +17 46.3    2.483    3.417   158.3     6.1    20.5
2009 01 29    09 52.94   +18 13.3    2.462    3.420   164.1     4.5    20.4
2009 02 03    09 48.93   +18 40.5    2.449    3.423   169.7     3.0    20.3
2009 02 08    09 44.75   +19 07.3    2.443    3.425   174.1     1.7    20.2
2009 02 13    09 40.49   +19 32.9    2.444    3.428   173.7     1.8    20.2
2009 02 18    09 36.23   +19 57.0    2.454    3.430   169.1     3.1    20.3
2009 02 23    09 32.10   +20 19.1    2.471    3.432   163.5     4.7    20.4
2009 02 28    09 28.17   +20 38.7    2.496    3.434   157.8     6.3    20.5
2009 03 05    09 24.55   +20 55.5    2.528    3.435   152.0     7.8    20.6
2009 03 10    09 21.31   +21 09.4    2.566    3.437   146.3     9.2    20.7
2009 03 15    09 18.51   +21 20.3    2.610    3.438   140.7    10.5    20.8
2009 03 20    09 16.18   +21 28.3    2.660    3.440   135.3    11.8    20.9

Back to Observable Critical-List Minor Planets

MPC

Valid HTML 4.01!